Wind_Speed
6 4 4 2 3 2 2 3 2 3 3 5 5 5 9 8 1 2 7 12 22 18 14 11 13 12 13 13 14 10 12 11 12 14 13 13 12 12 13 13 13 13 14 15 14 14 15 15 15
5 6 2 1 4 3 2 4 4 5 7 6 9 7 7 4 5 7 13 10 20 16 12 9 7 8 9 11 12 10 10 9 11 12 12 12 11 11 12 13 13 13 14 14 14 14 15 15 16
3 6 2 3 2 3 3 3 9 9 4 5 5 7 4 3 6 12 9 21 18 14 11 10 10 9 9 12 15 12 9 10 11 11 12 11 10 9 11 13 13 12 12 13 12 12 14 14 13
4 3 3 3 3 2 3 6 10 9 8 7 10 7 4 6 5 12 24 22 17 14 12 12 11 9 11 14 18 13 7 10 11 11 11 11 10 9 9 10 11 11 10 10 9 11 12 12 12
3 3 4 3 5 4 7 11 5 4 5 10 5 6 5 6 13 27 25 19 17 15 14 13 13 13 12 13 14 11 6 9 9 10 9 10 9 9 9 9 8 8 7 7 7 9 9 9 9
3 2 4 3 5 5 7 8 7 11 10 13 10 8 3 15 26 25 22 19 16 15 15 12 13 12 12 12 11 9 8 7 8 9 9 9 9 9 9 10 7 7 5 6 7 7 6 6 5
4 4 3 5 4 3 5 6 9 11 12 7 9 4 3 8 21 21 18 17 15 15 14 14 13 13 12 11 11 10 9 9 8 7 8 7 8 8 7 7 6 6 5 5 6 5 4 4 2
3 3 5 3 3 8 9 5 14 12 3 12 9 5 6 9 21 19 18 17 18 17 15 15 15 14 13 13 11 10 9 8 8 8 6 6 6 6 5 6 6 5 4 5 5 4 3 4 4
2 4 1 4 1 8 6 7 7 6 15 4 3 6 12 23 21 22 20 18 19 17 17 16 16 15 14 12 10 9 8 7 8 7 6 6 6 6 4 4 5 4 4 5 6 6 4 3 2
4 3 8 3 6 3 7 6 6 7 11 3 8 13 21 22 22 19 18 17 20 19 19 17 16 15 13 12 12 10 9 9 8 9 8 7 6 5 3 2 3 1 3 3 3 4 4 3 2
2 5 5 4 4 6 7 7 5 15 8 14 16 16 18 19 17 17 13 18 23 22 20 18 16 15 14 12 10 11 11 10 9 8 8 7 6 4 1 1 1 1 3 4 5 7 8 9 9
3 4 9 5 2 5 7 2 5 10 4 13 18 20 20 14 14 17 16 21 22 24 21 20 17 15 13 11 13 14 13 10 7 5 7 3 3 2 2 2 2 2 4 5 7 11 12 12 13
2 2 8 9 4 5 8 7 6 7 10 13 15 18 18 13 14 16 15 17 21 24 22 20 16 14 13 14 14 13 10 8 6 7 3 5 4 1 3 5 5 5 7 7 8 8 10 12 13
1 4 6 9 3 6 7 6 10 11 16 17 17 16 14 12 18 16 20 21 24 26 24 21 19 16 16 14 12 11 10 7 8 9 7 3 2 2 3 3 2 2 4 4 4 5 7 10 11
3 7 7 8 9 6 10 6 3 15 19 19 17 14 13 14 23 24 27 28 27 28 26 27 21 18 16 15 13 10 10 9 8 10 7 5 6 5 3 2 2 2 2 4 3 3 5 6 6
2 3 4 7 9 4 5 3 6 2 13 17 18 15 15 18 26 25 27 33 28 23 29 26 22 18 15 16 15 12 10 11 11 12 7 6 8 6 5 3 3 4 2 4 3 1 1 1 1
4 4 1 4 13 0 3 3 5 9 4 9 12 16 13 11 14 23 29 34 31 26 29 26 22 18 13 12 15 12 11 10 13 12 12 9 10 9 7 6 8 7 4 2 6 9 7 4 4
4 4 3 6 7 6 5 6 12 9 10 6 10 10 9 13 13 24 29 29 28 28 27 26 21 17 14 12 11 12 13 12 16 12 12 11 12 9 6 7 6 10 9 7 9 9 9 6 4
9 4 5 2 3 1 4 10 15 10 7 6 9 8 9 12 11 23 26 26 29 29 28 27 26 21 17 17 14 13 14 14 14 13 11 12 11 8 5 6 2 11 9 7 7 6 6 7 2
9 4 1 2 2 2 5 7 6 8 4 5 8 7 8 11 11 15 23 26 29 33 32 28 27 25 21 18 16 17 17 14 11 14 13 12 10 7 9 7 6 6 7 5 4 4 2 4 6
4 7 6 3 4 1 4 5 4 2 4 4 6 5 9 12 13 12 20 26 27 28 32 30 29 30 25 21 17 16 15 9 13 12 12 13 9 7 4 9 9 5 5 5 6 4 4 5 4
5 13 4 6 4 2 1 3 4 3 3 6 5 5 6 12 10 12 20 23 26 31 34 32 33 29 26 23 19 15 15 11 13 14 15 12 10 8 7 6 8 5 5 4 4 4 4 4 3
9 14 12 4 4 3 3 3 5 4 5 6 7 7 8 11 14 15 23 29 30 29 36 34 30 27 25 22 19 17 18 16 14 15 14 15 13 10 9 8 7 6 6 5 2 1 1 1 1
8 8 8 5 3 3 2 4 4 2 4 2 4 12 11 8 14 17 23 25 25 26 28 34 32 29 28 25 21 18 17 15 16 16 17 17 14 14 12 12 9 7 6 4 2 1 3 4 2
8 7 3 3 1 5 3 3 6 4 4 3 7 10 13 4 6 12 15 21 24 25 28 33 33 31 30 28 25 22 19 17 16 17 18 18 16 15 13 12 12 9 5 5 6 5 4 4 4
3 6 5 3 3 3 2 4 5 6 3 4 5 4 3 4 5 7 18 25 26 27 30 32 35 35 34 31 29 25 22 22 19 17 17 18 17 15 16 16 14 11 8 7 8 7 6 6 5
3 4 4 7 3 2 3 5 4 5 7 6 7 8 4 6 7 11 13 20 26 26 32 36 36 38 38 35 31 28 25 23 22 20 19 16 17 16 16 15 15 13 11 10 9 9 9 8 8
5 5 3 3 3 3 4 4 4 3 3 4 4 7 5 5 8 6 7 21 29 33 35 38 38 41 41 37 35 33 30 27 22 20 21 17 13 15 13 13 15 14 14 12 11 11 11 9 8
1 2 6 5 4 5 2 5 5 5 4 4 5 5 5 6 3 4 2 4 27 31 32 36 36 37 35 39 36 36 34 31 28 25 22 19 17 18 15 13 14 16 18 15 13 13 10 10 10
2 4 5 5 3 1 4 5 2 5 8 6 6 8 5 6 4 3 1 4 1 24 27 30 30 32 40 41 39 37 35 34 31 29 25 21 20 20 19 17 17 16 14 13 13 13 11 9 10
Wind_Direction
166 179 146 90 64 84 52 50 87 121 60 347 76 92 109 33 59 167 156 150 159 140 140 156 137 133 126 120 107 91 100 102 105 104 103 107 110 107 105 113 117 116 112 113 113 112 114 114 113
177 163 119 84 80 60 40 98 68 50 127 94 78 82 59 79 61 100 125 145 149 145 150 161 165 134 129 117 107 105 106 102 104 102 104 107 106 102 111 112 113 114 116 113 115 115 116 115 115
94 170 89 87 77 140 128 79 114 139 157 88 109 54 63 60 94 132 148 157 157 156 154 154 144 141 112 114 126 133 130 118 108 108 109 106 106 108 104 107 110 106 104 112 116 119 120 117 116
217 12 70 65 30 35 106 125 130 120 91 61 109 70 67 132 131 147 149 159 165 158 159 158 155 141 129 127 116 108 112 116 113 112 118 120 113 107 110 104 103 99 105 107 112 121 126 122 121
68 51 42 8 38 109 137 140 130 69 78 92 97 94 86 151 139 149 157 165 165 161 160 159 156 153 151 150 146 152 144 107 109 116 117 112 109 105 108 112 108 97 100 108 111 128 127 122 111
67 72 40 20 104 94 141 141 112 98 100 98 99 96 101 146 146 158 165 167 166 162 159 160 153 157 156 151 147 149 136 120 122 121 120 110 101 93 88 103 102 103 110 114 114 120 125 121 102
96 84 33 308 115 139 156 138 115 122 119 106 136 84 79 129 153 164 174 172 170 162 158 159 161 160 158 154 153 147 139 137 134 127 117 108 97 91 97 102 101 96 86 81 89 105 125 135 122
79 82 24 326 304 57 120 113 139 135 104 129 150 151 178 176 166 168 164 163 166 168 163 168 166 166 162 158 157 152 141 137 126 125 130 119 105 102 106 109 93 79 72 62 63 73 106 153 156
311 70 72 286 193 110 88 137 148 119 140 162 173 112 157 158 158 152 155 162 170 171 170 173 170 167 166 157 155 157 146 141 131 131 135 149 145 132 126 106 83 60 52 57 54 61 71 111 160
56 98 202 202 330 40 309 212 195 132 163 109 97 103 138 146 148 152 165 164 171 173 175 177 171 168 163 161 166 167 153 158 150 153 152 147 143 133 142 129 92 43 8 5 28 30 22 27 354
144 162 181 326 278 284 290 180 182 142 182 163 153 150 156 149 156 170 179 171 177 179 179 180 177 172 166 167 161 159 154 150 152 150 148 146 137 145 167 105 19 1 341 347 339 330 332 330 319
140 199 150 185 137 332 357 22 165 157 216 167 159 160 154 162 168 175 180 179 181 183 182 182 180 173 164 167 170 162 161 161 163 166 178 174 187 215 227 260 280 311 331 337 332 328 332 329 324
259 182 188 128 116 317 306 304 170 226 170 155 152 160 166 167 170 184 185 192 184 188 184 189 184 173 169 169 171 174 176 181 192 206 194 159 87 127 266 264 254 275 316 312 318 325 333 342 351
127 193 117 139 257 307 311 294 186 184 160 158 161 174 172 170 173 178 188 193 191 192 191 193 184 179 175 175 185 193 195 205 217 191 166 140 249 222 183 161 129 43 5 356 4 9 357 7 348
169 129 141 177 177 230 212 272 185 154 155 163 165 168 176 187 183 184 190 195 190 198 189 193 188 185 187 184 193 209 213 228 211 185 168 170 167 173 147 117 97 124 18 21 21 340 328 337 65
86 169 153 218 173 235 186 104 9 47 156 169 171 175 187 183 190 192 189 195 195 197 190 187 185 187 193 206 218 216 233 234 217 200 176 193 182 182 168 174 190 187 59 348 358 15 223 11 109
20 262 178 165 204 154 145 143 300 285 14 166 177 174 179 179 178 190 191 196 195 199 190 187 189 187 190 200 215 230 214 213 209 206 209 199 186 187 206 198 203 196 192 159 98 77 82 115 193
163 259 164 206 204 208 165 166 180 196 236 187 182 175 174 170 182 182 189 195 192 186 190 190 189 184 176 183 189 198 220 222 207 206 190 189 193 212 238 213 219 197 175 144 110 95 79 85 119
179 211 200 92 120 84 201 172 188 169 215 176 189 186 165 171 184 178 184 187 185 186 191 192 189 187 182 188 190 192 204 199 209 206 194 198 197 207 209 176 177 184 182 164 155 126 89 64 78
195 176 196 95 146 144 181 226 238 178 190 217 199 180 176 164 166 175 173 184 186 191 195 198 195 188 188 188 193 187 196 213 219 203 195 205 201 229 222 211 178 136 143 149 137 146 132 78 35
195 176 187 177 153 61 104 314 237 209 151 214 235 200 183 165 175 171 174 183 192 192 197 196 191 183 185 186 181 200 204 217 202 210 217 209 220 223 216 182 185 169 125 102 127 106 77 84 46
177 218 158 144 108 169 67 268 293 259 208 198 224 213 205 171 177 177 177 185 197 196 199 197 193 191 190 189 193 192 196 200 210 219 221 215 213 210 195 171 170 145 149 122 117 110 90 82 164
215 155 177 106 93 96 1 75 276 331 261 224 216 213 228 182 169 184 186 188 199 196 199 199 196 196 194 195 198 197 204 215 216 220 232 233 221 218 215 200 189 174 154 175 168 146 243 247 216
100 72 49 55 74 10 244 148 281 229 280 198 192 223 213 201 181 188 192 186 196 196 197 201 202 201 202 198 204 208 207 212 217 220 231 229 223 223 226 218 221 215 205 199 196 199 234 268 283
74 74 30 13 77 213 162 118 239 247 307 250 251 214 207 205 193 174 187 187 191 190 195 199 204 203 202 204 205 209 213 210 213 224 231 221 225 229 233 230 223 226 221 247 260 256 273 270 267
53 136 146 206 197 249 147 226 245 180 125 103 79 97 188 153 237 203 196 194 196 188 193 198 201 203 206 209 210 210 213 210 214 228 231 225 225 241 249 236 230 226 223 241 242 255 261 266 257
174 58 166 102 5 69 252 289 297 151 24 343 121 97 38 303 206 206 220 200 196 195 193 199 202 207 210 213 216 213 211 215 220 225 219 224 232 242 248 236 230 222 232 235 249 260 260 264 262
113 148 71 16 144 261 293 288 239 56 316 323 46 79 68 308 208 174 194 212 203 201 200 201 206 208 212 216 219 220 216 213 217 218 213 221 230 237 235 224 220 229 240 244 252 262 266 264 262
47 60 51 110 122 171 220 258 223 174 212 215 156 125 86 23 194 165 334 297 210 204 200 200 203 207 211 216 217 220 220 218 216 216 218 223 227 229 231 226 230 243 249 242 247 256 264 272 279
120 148 130 121 219 194 150 270 266 208 216 211 255 133 72 101 236 180 326 326 275 204 203 200 200 204 212 216 217 221 225 221 219 221 219 219 226 228 229 230 243 236 240 245 251 254 252 269 276
Height
771 771 772 775 793 787 792 790 772 778 779 776 773 781 794 796 799 816 798 802 805 807 808 811 812 813 814 814 814 814 813 814 815 815 817 819 821 822 822 824 825 825 827 828 829 830 831 832 834
770 772 772 777 799 805 797 776 785 781 780 776 777 784 792 802 796 801 803 806 808 810 811 812 814 816 817 818 818 818 816 816 818 819 820 822 823 824 825 826 827 828 829 830 832 833 833 835 836
771 771 777 788 800 810 802 782 782 779 773 776 785 784 792 802 801 802 803 806 809 811 814 814 816 818 819 820 820 820 819 819 820 821 823 824 826 826 827 828 829 830 832 833 834 836 836 837 838
769 771 777 794 792 781 786 782 777 781 776 777 783 797 797 799 801 803 806 808 811 813 815 818 819 819 819 820 819 820 822 820 822 823 825 826 827 829 829 830 832 833 835 836 837 838 838 840 840
769 775 795 797 788 781 777 773 775 782 784 787 785 803 806 803 802 805 807 810 812 814 816 817 819 821 821 821 821 824 824 824 825 827 828 829 830 831 832 833 834 836 837 839 840 840 841 842 843
778 782 803 805 792 782 779 772 777 786 787 790 796 800 807 804 804 808 810 811 814 816 819 821 821 821 822 823 826 827 827 827 828 830 830 832 833 834 835 836 837 837 839 841 841 842 844 845 845
782 794 811 806 793 790 784 775 784 789 791 794 791 808 808 807 808 810 812 815 817 819 822 822 823 823 824 825 827 828 829 830 831 832 833 834 836 836 838 838 839 839 841 842 842 844 845 845 846
784 791 809 802 800 799 782 781 779 786 792 787 790 809 814 806 809 812 815 817 819 821 822 823 823 825 826 828 830 830 831 832 833 834 836 836 837 838 839 840 841 841 843 844 844 844 845 845 846
782 803 819 811 796 800 779 785 782 779 787 787 789 794 797 804 810 814 817 820 821 823 823 824 824 826 828 829 831 832 833 834 835 837 837 837 838 839 840 842 842 843 844 845 845 845 846 846 847
790 806 808 795 796 798 792 789 788 788 794 796 795 798 801 807 811 814 816 818 821 823 822 824 825 827 829 830 831 833 834 835 835 837 838 839 839 840 842 843 843 844 845 846 845 846 847 847 847
792 802 798 798 794 798 794 785 781 790 801 792 797 800 803 809 814 816 818 818 820 822 824 825 827 828 829 830 832 833 835 836 837 839 840 841 840 841 842 842 843 844 845 845 845 845 846 845 845
794 786 796 795 797 797 794 782 788 788 791 787 789 794 802 809 812 815 817 818 820 821 824 826 827 828 829 832 833 836 837 837 838 839 841 841 841 842 843 843 843 844 844 844 844 844 844 842 843
792 789 788 793 795 796 795 793 790 791 786 790 794 799 802 810 813 816 819 820 821 823 824 826 827 830 832 833 834 835 836 837 839 840 841 841 842 842 843 844 844 844 843 842 842 841 840 841 841
785 787 792 794 798 798 801 794 785 787 783 791 797 801 805 809 811 815 816 818 821 823 825 826 828 831 831 833 835 835 836 839 840 840 842 842 842 843 844 844 844 843 842 840 840 839 840 841 841
785 794 795 796 798 803 793 799 793 782 785 793 798 802 805 806 809 809 811 814 819 822 823 825 827 829 832 834 835 836 838 840 840 841 842 842 843 843 844 845 845 843 842 841 841 840 841 841 840
792 793 811 799 801 791 796 815 796 786 789 795 797 800 801 802 804 808 810 812 816 822 822 824 826 828 830 833 834 837 838 839 840 842 844 844 844 844 844 845 845 844 843 842 842 841 840 838 838
802 813 810 806 793 792 795 817 805 794 791 796 797 797 799 802 805 807 808 811 815 818 820 823 825 828 830 833 834 837 838 839 841 842 844 845 845 844 844 844 844 843 844 843 842 841 839 837 838
816 814 802 805 794 795 801 805 803 795 798 795 794 795 798 800 804 805 807 812 816 818 819 823 825 828 831 832 835 837 837 838 840 842 844 844 844 844 844 843 843 842 843 844 842 842 840 838 838
789 795 804 797 790 796 799 801 797 796 798 797 794 795 798 799 800 804 810 812 814 818 819 821 823 827 831 833 834 837 837 837 839 841 843 843 844 845 842 842 842 842 842 843 843 841 841 840 840
786 797 803 798 791 797 803 803 797 798 798 798 792 795 796 796 799 803 808 811 812 814 817 821 823 825 829 832 832 835 836 837 838 840 841 842 844 844 843 842 842 842 842 841 842 842 842 841 841
790 798 801 797 797 796 805 813 804 794 794 793 792 789 791 793 797 801 806 807 810 813 815 819 821 823 826 830 832 833 835 837 838 839 841 841 842 843 842 841 843 842 841 842 842 842 841 841 842
803 776 783 794 806 822 807 837 810 802 798 797 795 793 792 792 794 798 802 805 808 808 813 817 820 822 825 828 829 830 832 835 836 838 839 841 842 842 843 842 843 843 843 843 842 843 841 840 843
780 765 780 792 811 815 818 830 815 805 801 796 794 795 791 788 791 795 796 800 803 807 810 814 818 821 823 825 827 828 830 833 835 837 838 840 841 842 842 843 843 844 844 844 843 842 841 842 843
761 782 800 816 824 842 819 826 823 814 803 794 791 789 787 786 787 789 793 799 802 806 809 812 815 818 822 823 825 826 828 831 833 835 837 839 841 842 842 842 843 844 844 844 844 843 843 843 842
778 805 844 846 846 845 822 829 819 800 791 790 789 784 780 784 786 786 791 793 800 803 806 809 813 816 820 821 822 825 827 829 830 833 834 836 838 839 840 841 841 842 843 844 844 844 843 843 843
780 795 832 833 849 837 821 831 810 790 790 788 783 781 780 783 788 788 787 788 794 798 803 806 808 812 817 819 820 822 825 827 829 830 831 833 835 836 839 839 840 840 841 842 843 843 843 843 842
784 806 797 833 840 841 831 810 793 792 796 792 786 784 787 783 781 784 785 787 787 793 795 800 803 807 811 814 818 820 822 825 827 829 830 831 833 834 836 836 838 839 840 841 842 842 843 843 842
775 786 812 828 842 844 836 824 821 803 802 796 793 787 785 783 780 780 780 782 782 784 789 794 799 802 805 810 814 817 819 821 824 826 828 830 832 833 833 833 835 837 838 838 839 840 840 841 840
791 801 816 822 835 846 846 835 799 796 795 792 788 786 783 779 775 777 778 778 778 780 783 787 794 798 802 805 810 813 816 818 821 822 824 826 829 831 833 833 834 835 835 836 837 838 838 838 838
783 794 808 830 829 837 840 829 795 790 787 786 783 773 772 777 775 776 778 777 774 776 779 783 790 794 795 799 804 808 812 816 818 819 821 824 826 828 830 831 832 833 833 834 834 834 836 836 837